This demonstration page uses our WeatherBlox Daily Observations layout. Learn more.

Left ArrowRight Arrow

41.55636, -103.73856

Hourly Observations for May 17, 2020

Temp ( °F °C ) Dew Point ( °F °C ) Humidity (%) Winds ( mph kmh ) Pressure ( in mb ) Visibility ( mi km ) Precip ( " mm )
12:58 am 00:58 Mostly Clear 61 16.1 34 1.3 37 37 N 14 22 30.02 1017 10 16 N/A
1:58 am 01:58 Clear 53 11.7 42 5.4 66 66 NE 16 26 30.07 1018 10 16 N/A
2:58 am 02:58 Clear 48 8.9 42 5.3 78 78 ENE 13 20 30.09 1019 10 16 N/A
3:58 am 03:58 Clear 45 7 40 4.6 85 85 ENE 9 15 30.12 1020 10 16 N/A
4:58 am 04:58 Partly Cloudy 43 6.2 41 5.2 93 93 N N/A 30.14 1021 10 16 N/A
5:58 am 05:58 Cloudy 45 7 42 5.5 90 90 ESE 6 9 30.13 1020 10 16 N/A
6:58 am 06:58 Cloudy 45 7.3 42 5.3 87 87 N N/A 30.13 1020 10 16 N/A
7:58 am 07:58 Cloudy 45 7.2 42 5.4 88 88 N N/A 30.13 1020 10 16 N/A
8:58 am 08:58 Mostly Cloudy 43 5.9 40 4.7 92 92 E 5 7 30.10 1019 10 16 N/A
9:58 am 09:58 Partly Cloudy 41 5.2 40 4.4 95 95 E 3 6 30.10 1019 10 16 N/A
10:58 am 10:58 Cloudy 42 5.3 40 4.3 93 93 E 6 9 30.10 1019 10 16 N/A
11:58 am 11:58 Cloudy 42 5.7 40 4.6 93 93 E 3 6 30.09 1019 10 16 N/A
12:58 pm 12:58 Cloudy 43 6.2 40 4.4 88 88 ESE 5 7 30.11 1020 10 16 N/A
1:58 pm 13:58 Cloudy 45 7 40 4.3 83 83 N N/A 30.13 1020 10 16 N/A
2:58 pm 14:58 Mostly Cloudy 49 9.2 41 5 75 75 SE 3 6 30.13 1020 10 16 N/A
3:58 pm 15:58 Mostly Cloudy 52 11 42 5.6 70 70 S 7 11 30.12 1020 10 16 N/A
4:58 pm 16:58 Mostly Sunny 56 13.4 43 6.2 62 62 SSE 3 6 30.09 1019 10 16 N/A
5:58 pm 17:58 Sunny 60 15.7 42 5.8 52 52 S 6 9 30.05 1018 10 16 N/A
6:58 pm 18:58 Sunny 64 17.6 44 6.4 48 48 SE 8 13 30.02 1017 10 16 N/A
7:58 pm 19:58 Sunny 66 18.9 43 5.9 43 43 SSE 7 11 30.00 1016 10 16 N/A
8:58 pm 20:58 Sunny 68 20 42 5.3 38 38 SE 12 19 29.99 1016 10 16 N/A
9:58 pm 21:58 Sunny 69 20.7 40 4.2 34 34 SE 8 13 29.98 1015 10 16 N/A
10:58 pm 22:58 Sunny 69 20.4 42 5.4 38 38 SSE 9 15 29.97 1015 10 16 N/A
11:58 pm 23:58 Sunny 67 19.4 40 4.6 38 38 SSE 13 20 29.98 1015 10 16 N/A

Powered by AerisWeather